When you browse on this site, cookies collect data to enhance your experience and personalize the content and advertising you see.
Visit our Privacy Policy to learn more. By continuing to use the site, you agree to this use of cookies and data.

Hourly Weather Mochudi

Today, 22 September, Tuesday

Time Temperature Precipitation Wind Pressure Humidity
00:00 +23°C° 0 mm 5 mps 682 mmHg 17%
01:00 +22°C° 0 mm 5 mps 682 mmHg 27%
02:00 +21°C° 0 mm 5 mps 682 mmHg 36%
03:00 +20°C° 0 mm 5 mps 682 mmHg 46%
04:00 +17°C° 0 mm 5 mps 682 mmHg 56%
05:00 +16°C° 0 mm 6 mps 683 mmHg 66%
06:00 +16°C° 0 mm 6 mps 684 mmHg 65%
07:00 +16°C° 0 mm 7 mps 684 mmHg 65%
08:00 +16°C° 0 mm 7 mps 685 mmHg 64%
09:00 +17°C° 0 mm 7 mps 686 mmHg 61%
10:00 +18°C° 0 mm 8 mps 686 mmHg 57%
11:00 +20°C° 0 mm 8 mps 686 mmHg 54%
12:00 +21°C° 0 mm 8 mps 686 mmHg 50%
13:00 +23°C° 0 mm 8 mps 686 mmHg 45%
14:00 +24°C° 0 mm 8 mps 685 mmHg 41%
15:00 +24°C° 0 mm 7 mps 685 mmHg 41%
16:00 +24°C° 0 mm 7 mps 685 mmHg 40%
17:00 +24°C° 0 mm 6 mps 685 mmHg 40%
18:00 +22°C° 0 mm 6 mps 685 mmHg 45%
19:00 +21°C° 0 mm 5 mps 686 mmHg 50%
20:00 +19°C° 0 mm 4 mps 686 mmHg 55%
21:00 +18°C° 0 mm 4 mps 686 mmHg 58%
22:00 +17°C° 0 mm 4 mps 686 mmHg 61%
23:00 +15°C° 0 mm 5 mps 686 mmHg 64%

Tomorrow, 23 September, Wednesday

Time Temperature Precipitation Wind Pressure Humidity
00:00 +15°C° 0 mm 4 mps 686 mmHg 66%
01:00 +14°C° 0 mm 4 mps 685 mmHg 69%
02:00 +13°C° 0 mm 4 mps 685 mmHg 71%
03:00 +13°C° 0 mm 4 mps 684 mmHg 73%
04:00 +12°C° 0 mm 4 mps 684 mmHg 74%
05:00 +12°C° 0 mm 4 mps 683 mmHg 75%
06:00 +13°C° 0 mm 4 mps 684 mmHg 70%
07:00 +14°C° 0 mm 5 mps 685 mmHg 65%
08:00 +16°C° 0 mm 5 mps 685 mmHg 60%
09:00 +19°C° 0 mm 5 mps 686 mmHg 51%
10:00 +22°C° 0 mm 4 mps 686 mmHg 43%
11:00 +26°C° 0 mm 4 mps 686 mmHg 34%
12:00 +28°C° 0 mm 4 mps 685 mmHg 30%
13:00 +30°C° 0 mm 3 mps 685 mmHg 26%
14:00 +31°C° 0 mm 3 mps 684 mmHg 21%
15:00 +31°C° 0 mm 3 mps 684 mmHg 21%
16:00 +33°C° 0 mm 3 mps 683 mmHg 21%
17:00 +33°C° 0 mm 3 mps 683 mmHg 20%
18:00 +29°C° 0 mm 3 mps 683 mmHg 24%
19:00 +27°C° 0 mm 3 mps 682 mmHg 28%
20:00 +24°C° 0 mm 2 mps 682 mmHg 33%
21:00 +23°C° 0 mm 2 mps 682 mmHg 35%
22:00 +21°C° 0 mm 2 mps 682 mmHg 38%
23:00 +20°C° 0 mm 2 mps 683 mmHg 40%

Day after tomorrow, 24 September, Thursday

Time Temperature Precipitation Wind Pressure Humidity
00:00 +20°C° 0 mm 2 mps 682 mmHg 42%
01:00 +19°C° 0 mm 2 mps 681 mmHg 44%
02:00 +18°C° 0 mm 2 mps 681 mmHg 46%
03:00 +18°C° 0 mm 2 mps 681 mmHg 48%
04:00 +17°C° 0 mm 2 mps 681 mmHg 51%
05:00 +16°C° 0 mm 3 mps 681 mmHg 54%
06:00 +18°C° 0 mm 3 mps 681 mmHg 50%
07:00 +20°C° 0 mm 4 mps 682 mmHg 46%
08:00 +21°C° 0 mm 4 mps 683 mmHg 41%
09:00 +26°C° 0 mm 4 mps 683 mmHg 35%
10:00 +29°C° 0 mm 4 mps 683 mmHg 29%
11:00 +33°C° 0 mm 5 mps 684 mmHg 22%
12:00 +34°C° 0 mm 4 mps 683 mmHg 20%
13:00 +35°C° 0 mm 4 mps 682 mmHg 18%
14:00 +37°C° 0 mm 3 mps 681 mmHg 15%
15:00 +37°C° 0 mm 2 mps 681 mmHg 15%
16:00 +37°C° 0 mm 2 mps 680 mmHg 15%
17:00 +36°C° 0 mm 1 mps 680 mmHg 14%
18:00 +33°C° 0 mm 1 mps 680 mmHg 17%
19:00 +30°C° 0 mm 2 mps 680 mmHg 20%
20:00 +27°C° 0 mm 2 mps 679 mmHg 23%
21:00 +26°C° 0 mm 2 mps 679 mmHg 25%
22:00 +25°C° 0 mm 2 mps 679 mmHg 26%
23:00 +24°C° 0 mm 3 mps 679 mmHg 28%

25 September, Friday

Time Temperature Precipitation Wind Pressure Humidity
00:00 +23°C° 0 mm 2 mps 679 mmHg 29%
01:00 +21°C° 0 mm 2 mps 678 mmHg 30%
02:00 +20°C° 0 mm 2 mps 678 mmHg 31%
03:00 +20°C° 0 mm 2 mps 678 mmHg 33%
04:00 +19°C° 0 mm 2 mps 678 mmHg 35%
05:00 +19°C° 0 mm 1 mps 678 mmHg 37%
06:00 +21°C° 0 mm 1 mps 679 mmHg 33%
07:00 +23°C° 0 mm 1 mps 680 mmHg 29%
08:00 +25°C° 0 mm 1 mps 681 mmHg 25%
09:00 +28°C° 0 mm 2 mps 681 mmHg 22%
10:00 +31°C° 0 mm 2 mps 681 mmHg 18%
11:00 +35°C° 0 mm 3 mps 681 mmHg 14%
12:00 +37°C° 0 mm 3 mps 680 mmHg 13%
13:00 +38°C° 0 mm 4 mps 680 mmHg 11%
14:00 +41°C° 0 mm 4 mps 679 mmHg 10%
15:00 +41°C° 0 mm 4 mps 678 mmHg 10%
16:00 +40°C° 0 mm 4 mps 677 mmHg 10%
17:00 +40°C° 0 mm 4 mps 677 mmHg 10%
18:00 +36°C° 0 mm 3 mps 677 mmHg 13%
19:00 +33°C° 0 mm 3 mps 676 mmHg 15%
20:00 +29°C° 0 mm 3 mps 676 mmHg 18%
21:00 +29°C° 0 mm 2 mps 676 mmHg 19%
22:00 +28°C° 0 mm 2 mps 676 mmHg 20%
23:00 +27°C° 0 mm 1 mps 676 mmHg 21%

26 September, Saturday

Time Temperature Precipitation Wind Pressure Humidity
00:00 +26°C° 0 mm 1 mps 675 mmHg 23%
01:00 +25°C° 0 mm 2 mps 675 mmHg 24%
02:00 +24°C° 0 mm 2 mps 675 mmHg 26%
03:00 +23°C° 0 mm 2 mps 675 mmHg 26%
04:00 +22°C° 0 mm 3 mps 675 mmHg 25%
05:00 +22°C° 0 mm 3 mps 675 mmHg 25%
06:00 +25°C° 0 mm 3 mps 676 mmHg 23%
07:00 +27°C° 0 mm 4 mps 677 mmHg 20%
08:00 +29°C° 0 mm 4 mps 678 mmHg 18%
09:00 +33°C° 0 mm 4 mps 678 mmHg 15%
10:00 +35°C° 0 mm 4 mps 678 mmHg 12%
11:00 +37°C° 0 mm 4 mps 678 mmHg 9%
12:00 +39°C° 0 mm 5 mps 678 mmHg 8%
13:00 +40°C° 0 mm 6 mps 677 mmHg 7%
14:00 +40°C° 0 mm 7 mps 677 mmHg 6%
15:00 +39°C° 0 mm 7 mps 677 mmHg 6%
16:00 +38°C° 0 mm 7 mps 676 mmHg 5%
17:00 +36°C° 0 mm 7 mps 676 mmHg 5%
18:00 +33°C° 0 mm 6 mps 676 mmHg 6%
19:00 +29°C° 0 mm 5 mps 677 mmHg 7%
20:00 +26°C° 0 mm 4 mps 677 mmHg 8%
21:00 +23°C° 0 mm 4 mps 677 mmHg 9%
22:00 +22°C° 0 mm 5 mps 677 mmHg 9%
23:00 +21°C° 0 mm 5 mps 677 mmHg 10%

27 September, Sunday

Time Temperature Precipitation Wind Pressure Humidity
00:00 +20°C° 0 mm 4 mps 677 mmHg 11%
01:00 +19°C° 0 mm 4 mps 677 mmHg 12%
02:00 +17°C° 0 mm 4 mps 677 mmHg 13%
03:00 +15°C° 0 mm 4 mps 676 mmHg 14%
04:00 +14°C° 0 mm 3 mps 676 mmHg 15%
05:00 +13°C° 0 mm 3 mps 676 mmHg 17%
06:00 +16°C° 0 mm 3 mps 677 mmHg 15%
07:00 +18°C° 0 mm 3 mps 678 mmHg 13%
08:00 +20°C° 0 mm 4 mps 679 mmHg 12%
09:00 +24°C° 0 mm 3 mps 679 mmHg 10%
10:00 +27°C° 0 mm 3 mps 679 mmHg 8%
11:00 +30°C° 0 mm 3 mps 679 mmHg 6%
12:00 +33°C° 0 mm 3 mps 679 mmHg 5%
13:00 +34°C° 0 mm 3 mps 678 mmHg 4%
14:00 +36°C° 0 mm 2 mps 678 mmHg 3%
15:00 +36°C° 0 mm 2 mps 677 mmHg 3%
16:00 +36°C° 0 mm 2 mps 677 mmHg 3%
17:00 +35°C° 0 mm 2 mps 677 mmHg 3%
18:00 +31°C° 0 mm 2 mps 677 mmHg 4%
19:00 +27°C° 0 mm 3 mps 677 mmHg 5%
20:00 +24°C° 0 mm 3 mps 677 mmHg 6%
21:00 +21°C° 0 mm 2 mps 677 mmHg 7%
22:00 +20°C° 0 mm 2 mps 677 mmHg 7%
23:00 +18°C° 0 mm 2 mps 677 mmHg 8%
Show more